TimeEDT,TemperatureF,Dew PointF,Humidity,Sea Level PressureIn,VisibilityMPH,Wind Direction,Wind SpeedMPH,Gust SpeedMPH,PrecipitationIn,Events,Conditions,WindDirDegrees,DateUTC
12:15 AM,75.2,66.2,73,30.01,7.0,NE,8.1,-,N/A,,Overcast,50,2014-08-24 04:15:00
12:35 AM,75.2,64.4,69,30.01,10.0,NE,8.1,-,N/A,,Overcast,50,2014-08-24 04:35:00
12:55 AM,73.4,64.4,73,30.02,7.0,NE,5.8,-,N/A,,Overcast,50,2014-08-24 04:55:00
1:15 AM,73.4,64.4,73,30.02,10.0,ENE,5.8,-,N/A,,Overcast,60,2014-08-24 05:15:00
1:35 AM,73.4,64.4,73,30.02,10.0,ENE,4.6,-,N/A,,Overcast,60,2014-08-24 05:35:00
1:55 AM,73.4,64.4,73,30.02,10.0,NNE,4.6,-,N/A,,Mostly Cloudy,20,2014-08-24 05:55:00
2:15 AM,73.4,64.4,73,30.02,7.0,NE,8.1,-,N/A,,Mostly Cloudy,50,2014-08-24 06:15:00
2:35 AM,73.4,66.2,78,30.02,10.0,ENE,5.8,-,N/A,,Overcast,60,2014-08-24 06:35:00
2:55 AM,73.4,66.2,78,30.01,10.0,ENE,4.6,-,N/A,,Mostly Cloudy,60,2014-08-24 06:55:00
3:15 AM,71.6,64.4,78,30.01,10.0,NE,3.5,-,N/A,,Scattered Clouds,40,2014-08-24 07:15:00
3:35 AM,71.6,64.4,78,30.01,10.0,NNE,3.5,-,N/A,,Clear,30,2014-08-24 07:35:00
3:55 AM,71.6,64.4,78,30.01,10.0,Calm,Calm,-,N/A,,Mostly Cloudy,0,2014-08-24 07:55:00
4:15 AM,71.6,64.4,78,30.01,10.0,NE,4.6,-,N/A,,Overcast,40,2014-08-24 08:15:00
4:35 AM,73.4,64.4,73,30.00,10.0,NNE,9.2,-,N/A,,Overcast,30,2014-08-24 08:35:00
4:55 AM,73.4,64.4,73,30.00,10.0,NNE,9.2,-,N/A,,Mostly Cloudy,30,2014-08-24 08:55:00
5:15 AM,71.6,64.4,78,30.00,7.0,NE,6.9,-,N/A,,Scattered Clouds,40,2014-08-24 09:15:00
5:35 AM,71.6,64.4,78,30.00,7.0,NNE,4.6,-,N/A,,Clear,30,2014-08-24 09:35:00
5:55 AM,71.6,62.6,73,30.01,10.0,NE,4.6,-,N/A,,Clear,40,2014-08-24 09:55:00
6:15 AM,69.8,62.6,78,30.02,10.0,NNE,3.5,-,N/A,,Clear,30,2014-08-24 10:15:00
6:35 AM,71.6,62.6,73,30.02,7.0,NNE,3.5,-,N/A,,Clear,30,2014-08-24 10:35:00
6:55 AM,69.8,62.6,78,30.03,7.0,NNE,4.6,-,N/A,,Scattered Clouds,20,2014-08-24 10:55:00
7:15 AM,71.6,62.6,73,30.04,7.0,NE,3.5,-,N/A,,Mostly Cloudy,50,2014-08-24 11:15:00
7:35 AM,73.4,62.6,69,30.04,7.0,NE,5.8,-,N/A,,Scattered Clouds,40,2014-08-24 11:35:00
7:55 AM,73.4,62.6,69,30.05,10.0,NE,9.2,-,N/A,,Clear,40,2014-08-24 11:55:00
8:15 AM,75.2,62.6,65,30.05,10.0,NE,12.7,16.1,N/A,,Clear,40,2014-08-24 12:15:00
8:35 AM,75.2,60.8,61,30.06,7.0,NE,12.7,-,N/A,,Clear,50,2014-08-24 12:35:00
8:55 AM,75.2,62.6,65,30.06,7.0,NE,15.0,-,N/A,,Scattered Clouds,40,2014-08-24 12:55:00
9:15 AM,75.2,62.6,65,30.06,7.0,NE,15.0,20.7,N/A,,Scattered Clouds,50,2014-08-24 13:15:00
9:35 AM,75.2,60.8,61,30.07,10.0,NE,16.1,-,N/A,,Mostly Cloudy,50,2014-08-24 13:35:00
9:55 AM,75.2,60.8,61,30.08,7.0,NNE,15.0,24.2,N/A,,Scattered Clouds,30,2014-08-24 13:55:00
10:15 AM,75.2,60.8,61,30.08,7.0,NE,16.1,24.2,N/A,,Scattered Clouds,40,2014-08-24 14:15:00
10:35 AM,77.0,60.8,57,30.08,10.0,NNE,13.8,23.0,N/A,,Scattered Clouds,30,2014-08-24 14:35:00
10:55 AM,78.8,60.8,54,30.08,10.0,NE,13.8,23.0,N/A,,Scattered Clouds,40,2014-08-24 14:55:00
11:15 AM,77.0,60.8,57,30.09,10.0,NNE,13.8,20.7,N/A,,Mostly Cloudy,20,2014-08-24 15:15:00
11:35 AM,77.0,59.0,54,30.09,10.0,NNE,16.1,23.0,N/A,,Scattered Clouds,30,2014-08-24 15:35:00
11:55 AM,78.8,60.8,54,30.09,7.0,NE,16.1,23.0,N/A,,Scattered Clouds,40,2014-08-24 15:55:00
12:15 PM,78.8,60.8,54,30.09,7.0,NNE,13.8,23.0,N/A,,Mostly Cloudy,30,2014-08-24 16:15:00
12:35 PM,78.8,60.8,54,30.08,10.0,NE,18.4,24.2,N/A,,Mostly Cloudy,40,2014-08-24 16:35:00
12:55 PM,78.8,60.8,54,30.09,7.0,NE,17.3,27.6,N/A,,Scattered Clouds,40,2014-08-24 16:55:00
1:15 PM,78.8,60.8,54,30.09,10.0,NNE,11.5,21.9,N/A,,Scattered Clouds,20,2014-08-24 17:15:00
1:35 PM,78.8,59.0,51,30.08,7.0,NNE,10.4,23.0,N/A,,Scattered Clouds,20,2014-08-24 17:35:00
1:55 PM,78.8,57.2,47,30.09,7.0,NE,20.7,25.3,N/A,,Scattered Clouds,40,2014-08-24 17:55:00
2:15 PM,78.8,57.2,47,30.09,7.0,NNE,11.5,26.5,N/A,,Scattered Clouds,30,2014-08-24 18:15:00
2:35 PM,78.8,57.2,47,30.08,10.0,NNE,12.7,21.9,N/A,,Scattered Clouds,20,2014-08-24 18:35:00
2:55 PM,78.8,55.4,44,30.08,10.0,NE,19.6,28.8,N/A,,Scattered Clouds,40,2014-08-24 18:55:00
3:15 PM,78.8,55.4,44,30.07,10.0,NNE,19.6,24.2,N/A,,Scattered Clouds,30,2014-08-24 19:15:00
3:35 PM,78.8,55.4,44,30.07,10.0,NNE,17.3,23.0,N/A,,Scattered Clouds,30,2014-08-24 19:35:00
3:55 PM,78.8,55.4,44,30.07,7.0,NNE,13.8,23.0,N/A,,Scattered Clouds,30,2014-08-24 19:55:00
4:15 PM,78.8,55.4,44,30.07,7.0,NNE,13.8,23.0,N/A,,Mostly Cloudy,30,2014-08-24 20:15:00
4:35 PM,78.8,57.2,47,30.07,7.0,NNE,15.0,21.9,N/A,,Mostly Cloudy,30,2014-08-24 20:35:00
4:55 PM,78.8,57.2,47,30.07,7.0,NE,12.7,16.1,N/A,,Mostly Cloudy,40,2014-08-24 20:55:00
5:15 PM,77.0,55.4,47,30.08,7.0,NE,13.8,23.0,N/A,,Scattered Clouds,40,2014-08-24 21:15:00
5:35 PM,77.0,57.2,50,30.08,10.0,NNE,15.0,19.6,N/A,,Clear,30,2014-08-24 21:35:00
5:55 PM,75.2,57.2,53,30.08,7.0,North,8.1,17.3,N/A,,Scattered Clouds,10,2014-08-24 21:55:00
6:15 PM,75.2,59.0,57,30.08,7.0,NE,15.0,-,N/A,,Scattered Clouds,50,2014-08-24 22:15:00
6:35 PM,75.2,59.0,57,30.08,7.0,North,11.5,19.6,N/A,,Mostly Cloudy,10,2014-08-24 22:35:00
6:55 PM,75.2,57.2,53,30.07,10.0,NNE,10.4,-,N/A,,Scattered Clouds,30,2014-08-24 22:55:00
7:15 PM,73.4,59.0,61,30.08,10.0,NNE,5.8,-,N/A,,Scattered Clouds,20,2014-08-24 23:15:00
7:35 PM,73.4,59.0,61,30.07,7.0,NNE,8.1,-,N/A,,Clear,30,2014-08-24 23:35:00
7:55 PM,71.6,60.8,69,30.08,10.0,NNE,6.9,-,N/A,,Scattered Clouds,30,2014-08-24 23:55:00
8:15 PM,71.6,60.8,69,30.08,10.0,NNE,5.8,-,N/A,,Clear,20,2014-08-25 00:15:00
8:35 PM,71.6,60.8,69,30.08,10.0,NNE,5.8,-,N/A,,Clear,20,2014-08-25 00:35:00
8:55 PM,71.6,60.8,69,30.08,7.0,NNE,3.5,-,N/A,,Clear,30,2014-08-25 00:55:00
9:15 PM,71.6,59.0,64,30.08,7.0,NNE,8.1,-,N/A,,Clear,30,2014-08-25 01:15:00
9:35 PM,71.6,59.0,64,30.08,7.0,NNE,8.1,-,N/A,,Clear,30,2014-08-25 01:35:00
9:55 PM,71.6,59.0,64,30.08,7.0,NNE,5.8,-,N/A,,Clear,20,2014-08-25 01:55:00
10:15 PM,69.8,59.0,68,30.08,7.0,NNE,8.1,-,N/A,,Clear,30,2014-08-25 02:15:00
10:35 PM,69.8,59.0,68,30.08,7.0,NNE,4.6,-,N/A,,Clear,20,2014-08-25 02:35:00
10:55 PM,69.8,60.8,73,30.08,7.0,NNE,8.1,-,N/A,,Clear,30,2014-08-25 02:55:00
11:15 PM,69.8,60.8,73,30.08,7.0,North,4.6,-,N/A,,Clear,10,2014-08-25 03:15:00
11:35 PM,69.8,60.8,73,30.09,7.0,NNE,5.8,-,N/A,,Clear,20,2014-08-25 03:35:00
11:55 PM,69.8,60.8,73,30.09,7.0,NNE,5.8,-,N/A,,Clear,20,2014-08-25 03:55:00